"2010-06-21 00:00:00",219340,1.321,89.1,7.908,0.103,19.26,107.7448,19.1,20.02,72.51,0,110.7,13.29,19.92,51.1
"2010-06-21 00:00:30",219341,1.242,92.8,5.938,0.207,19.28,107.746,19.11,20.02,72.56,0,110.8,13.29,19.93,54.8
"2010-06-21 00:01:00",219342,1.443,80.3,2.418,0.192,19.14,107.7445,19.1,20.01,72.55,0,110.8,13.29,19.92,42.3
"2010-06-21 00:01:30",219343,1.125,69.79,4.445,0.128,19.32,107.7448,19.1,20.02,72.59,0,110.8,13.29,19.92,31.8
"2010-06-21 00:02:00",219344,1.265,64.58,6.927,0.079,19.39,107.7424,19.1,20,72.23,0,110.7,13.29,19.92,26.6
"2010-06-21 00:02:30",219345,1.387,54.28,8.47,0.137,19.38,107.7442,19.1,20,72.03,0,110.7,13.29,19.92,16.3
"2010-06-21 00:03:00",219346,1.485,86.2,7.574,0.141,19.31,107.7456,19.11,20,72.06,0,110.7,13.29,19.93,48.2
"2010-06-21 00:03:30",219347,1.468,77.56,3.49,0.097,19.23,107.7466,19.11,20.03,72.07,0,110.7,13.29,19.93,39.6
"2010-06-21 00:04:00",219348,1.769,78.25,6.151,0.202,19.33,107.7481,19.11,20.03,72,0,110.7,13.29,19.93,40.2
"2010-06-21 00:04:30",219349,2.035,80.7,4.231,0.116,19.3,107.7505,19.12,20,71.99,0,110.7,13.29,19.94,42.7
"2010-06-21 00:05:00",219350,1.995,90.2,2.516,0.097,19.4,107.7506,19.12,20,72.06,0,110.7,13.29,19.94,52.2
"2010-06-21 00:05:30",219351,2.528,83.4,4.445,0.208,19.44,107.7566,19.14,20,72.16,0,110.7,13.29,19.95,45.4
"2010-06-21 00:06:00",219352,2.261,83.7,5.597,0.184,19.46,107.7615,19.15,20,72.17,0,110.7,13.3,19.97,45.7
"2010-06-21 00:06:30",219353,2.318,97.1,2.855,0.09,19.31,107.7636,19.15,20,72.56,0,110.7,13.3,19.97,59.1
"2010-06-21 00:07:00",219354,2.331,100.2,4.416,0.085,19.35,107.7564,19.13,20,72.72,0,110.7,13.3,19.95,62.2
"2010-06-21 00:07:30",219355,2.455,105.2,2.679,0.155,19.34,107.7464,19.11,20,72.73,0,110.7,13.3,19.93,67.2
"2010-06-21 00:08:00",219356,2.828,97.6,4.108,0.16,19.46,107.7425,19.1,19.99,72.51,0,110.7,13.3,19.92,59.6
"2010-06-21 00:08:30",219357,2.764,111.9,3.649,0.144,19.35,107.744,19.1,19.98,72.55,0,110.7,13.3,19.92,73.9
"2010-06-21 00:09:00",219358,2.647,105.5,4.615,0.164,19.45,107.7424,19.1,19.98,72.57,0,110.7,13.3,19.92,67.5
"2010-06-21 00:09:30",219359,2.834,110.4,3.593,0.136,19.44,107.7418,19.1,19.97,72.54,0,110.7,13.29,19.92,72.4
"2010-06-21 00:10:00",219360,2.207,106.9,4.019,0.218,19.5,107.7413,19.1,19.97,72.47,0,110.7,13.29,19.91,68.9
"2010-06-21 00:10:30",219361,2.296,107.2,3.414,0.112,19.35,107.7396,19.09,19.98,72.53,0,110.7,13.29,19.91,69.2
"2010-06-21 00:11:00",219362,2.446,113.6,4.687,0.186,19.31,107.7387,19.09,19.97,72.5,0,110.7,13.29,19.91,75.6
"2010-06-21 00:11:30",219363,2.148,116,4.222,0.165,19.41,107.7435,19.1,19.96,72.37,0,110.7,13.29,19.92,78.0
"2010-06-21 00:12:00",219364,2.347,112.2,7.359,0.238,19.4,107.7458,19.11,19.97,72.31,0,110.7,13.29,19.93,74.2
"2010-06-21 00:12:30",219365,2.844,115.5,3.923,0.157,19.39,107.7466,19.11,19.98,72.51,0,110.7,13.29,19.93,77.5
"2010-06-21 00:13:00",219366,2.219,106.9,3.784,0.329,19.43,107.7469,19.11,19.99,72.52,0,110.7,13.28,19.93,68.9
"2010-06-21 00:13:30",219367,1.782,101.4,5.897,0.253,19.46,107.7497,19.12,19.99,72.3,0,110.7,13.29,19.94,63.4
"2010-06-21 00:14:00",219368,2.142,86.9,9.53,0.107,19.55,107.7565,19.13,19.98,72.22,0,110.7,13.29,19.95,48.9
"2010-06-21 00:14:30",219369,1.766,75.63,3.591,0.167,19.48,107.7697,19.17,19.98,72.04,0,110.7,13.29,19.99,37.6
"2010-06-21 00:15:00",219370,2.052,70.61,3.46,0.205,19.48,107.7703,19.17,20,71.99,0,110.7,13.3,19.99,32.6
"2010-06-21 00:15:30",219371,2.129,79.71,5.79,0.166,19.45,107.7703,19.17,20.03,72.02,0,110.7,13.3,19.99,41.7
"2010-06-21 00:16:00",219372,1.81,74.97,6.708,0.183,19.43,107.7703,19.17,20.03,72,0,110.7,13.3,19.99,37.0
"2010-06-21 00:16:30",219373,1.885,64.78,4.301,0.115,19.44,107.7703,19.17,20.03,72.01,0,110.7,13.3,19.99,26.8
"2010-06-21 00:17:00",219374,2.144,63.88,3.85,0.163,19.53,107.7705,19.17,20.04,71.91,0,110.7,13.3,19.99,25.9
"2010-06-21 00:17:30",219375,2.252,68.79,3.701,0.066,19.42,107.7703,19.17,20.02,71.96,0,110.7,13.3,19.99,30.8
"2010-06-21 00:18:00",219376,2.084,74.67,2.716,0.079,19.48,107.7703,19.17,20.03,72.02,0,110.7,13.3,19.99,36.7
"2010-06-21 00:18:30",219377,2.015,74.08,1.377,0.069,19.57,107.7703,19.17,20.02,72.12,0,110.7,13.3,19.99,36.1
"2010-06-21 00:19:00",219378,1.91,77.27,3.145,0.114,19.42,107.77,19.17,20.02,72.12,0,110.7,13.3,19.99,39.3
"2010-06-21 00:19:30",219379,1.796,77.55,3.522,0.103,19.45,107.7624,19.15,20.02,72.17,0,110.7,13.3,19.97,39.6
"2010-06-21 00:20:00",219380,1.749,80.7,2.419,0.056,19.26,107.7506,19.12,20.01,72.17,0,110.7,13.3,19.94,42.7
"2010-06-21 00:20:30",219381,1.413,88.3,2.196,0.104,19.56,107.7452,19.11,20,72.2,0,110.7,13.3,19.92,50.3
"2010-06-21 00:21:00",219382,1.318,86.7,2.766,0.044,19.55,107.7393,19.09,20,72.2,0,110.7,13.3,19.91,48.7
"2010-06-21 00:21:30",219383,1.186,88.8,3.908,0.1,19.55,107.741,19.1,20,72.01,0,110.7,13.3,19.91,50.8
"2010-06-21 00:22:00",219384,1.03,102.3,6.007,0.065,19.39,107.7452,19.11,19.99,71.86,0,110.7,13.3,19.92,64.3
"2010-06-21 00:22:30",219385,1.056,123.2,7.529,0.064,19.45,107.7463,19.11,20,71.95,0,110.7,13.3,19.93,85.2
"2010-06-21 00:23:00",219386,1.14,125.5,3.228,0.124,19.36,107.7458,19.11,20.01,71.95,0,110.7,13.3,19.93,87.5
"2010-06-21 00:23:30",219387,1.712,139.2,3.371,0.139,19.44,107.7458,19.11,20,71.9,0,110.7,13.3,19.93,101.2
"2010-06-21 00:24:00",219388,1.889,147.4,4.223,0.099,19.43,107.7475,19.11,20,71.89,0,110.7,13.3,19.93,109.4
"2010-06-21 00:24:30",219389,2.055,153.2,1.844,0.076,19.25,107.752,19.12,20,71.86,0,110.7,13.3,19.94,115.2
"2010-06-21 00:25:00",219390,2.248,158.2,1.72,0.113,19.52,107.7531,19.13,20.01,71.91,0,110.7,13.3,19.95,120.2
"2010-06-21 00:25:30",219391,2.463,163.2,3.649,0.059,19.3,107.752,19.12,20.01,72.02,0,110.7,13.3,19.94,125.2
"2010-06-21 00:26:00",219392,2.614,166.9,2.41,0.084,19.4,107.7506,19.12,20.01,71.95,0,110.7,13.3,19.94,128.9
"2010-06-21 00:26:30",219393,3.055,164.8,1.522,0.11,19.35,107.7458,19.11,20.01,72.1,0,110.7,13.3,19.93,126.8
"2010-06-21 00:27:00",219394,3.204,166.6,2.34,0.255,19.59,107.7455,19.11,20.01,72.22,0,110.7,13.3,19.93,128.6
"2010-06-21 00:27:30",219395,3.429,166.1,1.202,0.069,19.57,107.7424,19.1,20,72.74,0,110.7,13.3,19.92,128.1
"2010-06-21 00:28:00",219396,3.415,165.8,1.144,0.109,19.55,107.7365,19.08,20,72.8,0,110.7,13.3,19.90,127.8
"2010-06-21 00:28:30",219397,3.394,166,1.743,0.143,19.5,107.7365,19.08,19.99,72.87,0,110.7,13.3,19.90,128.0
"2010-06-21 00:29:00",219398,3.35,165.3,1.686,0.107,19.51,107.7365,19.08,19.98,72.88,0,110.7,13.3,19.90,127.3
"2010-06-21 00:29:30",219399,3.204,165.3,1.97,0.103,19.34,107.7365,19.08,19.97,72.86,0,110.7,13.3,19.90,127.3
"2010-06-21 00:30:00",219400,3.291,162.5,2.069,0.127,19.42,107.7365,19.08,19.97,72.76,0,110.7,13.3,19.90,124.5
"2010-06-21 00:30:30",219401,3.391,158.1,2.569,0.131,19.52,107.7365,19.08,19.96,72.68,0,110.7,13.3,19.90,120.1
"2010-06-21 00:31:00",219402,3.544,154.2,2.325,0.06,19.61,107.7362,19.08,19.96,72.68,0,110.7,13.3,19.90,116.2
"2010-06-21 00:31:30",219403,3.463,153.2,1.725,0.16,19.47,107.7365,19.08,19.95,72.78,0,110.7,13.3,19.90,115.2
"2010-06-21 00:32:00",219404,3.352,150,1.059,0.088,19.23,107.7345,19.08,19.95,72.7,0,110.7,13.3,19.90,112.0
"2010-06-21 00:32:30",219405,3.325,153.8,2.145,0.124,19.39,107.7345,19.08,19.95,72.69,0,110.7,13.3,19.90,115.8
"2010-06-21 00:33:00",219406,3.396,153.1,2.152,0.122,19.42,107.7354,19.08,19.96,72.6,0,110.7,13.3,19.90,115.1
"2010-06-21 00:33:30",219407,3.562,152.1,0.935,0.104,19.59,107.7351,19.08,19.94,72.55,0,110.7,13.3,19.90,114.1
"2010-06-21 00:34:00",219408,3.705,154.7,2.239,0.143,19.47,107.734,19.08,19.95,72.57,0,110.7,13.3,19.90,116.7
"2010-06-21 00:34:30",219409,3.784,153.2,2.066,0.134,19.34,107.7238,19.05,19.94,72.54,0,110.7,13.3,19.87,115.2
"2010-06-21 00:35:00",219410,3.836,152.3,1.886,0.097,19.34,107.7176,19.04,19.95,72.61,0,110.7,13.3,19.85,114.3
"2010-06-21 00:35:30",219411,3.879,153.3,3.761,0.096,19.31,107.7142,19.03,19.94,72.73,0,110.7,13.3,19.84,115.3
"2010-06-21 00:36:00",219412,3.885,156,1.742,0.081,19.28,107.7083,19.01,19.92,72.65,0,110.7,13.3,19.83,118.0
"2010-06-21 00:36:30",219413,3.833,154.1,3.205,0.11,19.33,107.705,19,19.93,72.62,0,110.7,13.3,19.82,116.1
"2010-06-21 00:37:00",219414,3.854,148.7,2.972,0.091,19.47,107.7041,19,19.93,72.58,0,110.7,13.3,19.82,110.7
"2010-06-21 00:37:30",219415,3.78,152.3,2.585,0.059,19.45,107.703,19,19.93,72.59,0,110.7,13.3,19.82,114.3
"2010-06-21 00:38:00",219416,3.657,152.5,1.094,0.071,19.63,107.7027,19,19.92,72.73,0,110.7,13.3,19.82,114.5
"2010-06-21 00:38:30",219417,3.625,148.9,2.584,0.153,19.51,107.7027,19,19.92,72.71,0,110.7,13.3,19.82,110.9
"2010-06-21 00:39:00",219418,3.7,150,1.144,0.078,19.67,107.7027,19,19.91,72.68,0,110.7,13.3,19.82,112.0
"2010-06-21 00:39:30",219419,3.757,151.4,1.964,0.048,19.59,107.7033,19,19.92,72.64,0,110.7,13.3,19.82,113.4
"2010-06-21 00:40:00",219420,3.895,152.5,2.87,0.088,19.35,107.7033,19,19.93,72.62,0,110.7,13.3,19.82,114.5
"2010-06-21 00:40:30",219421,4.073,153.9,1.203,0.136,19.54,107.712,19.02,19.93,72.44,0,110.7,13.3,19.84,115.9
"2010-06-21 00:41:00",219422,4.292,154.6,1.839,0.068,19.62,107.7154,19.03,19.93,72.48,0,110.7,13.3,19.85,116.6
"2010-06-21 00:41:30",219423,4.404,157.3,1.119,0.062,19.31,107.721,19.04,19.93,72.47,0,110.7,13.3,19.86,119.3
"2010-06-21 00:42:00",219424,4.409,157.2,0.534,0.047,19.27,107.7233,19.05,19.95,72.35,0,110.7,13.3,19.87,119.2
"2010-06-21 00:42:30",219425,4.419,157.1,0.783,0.082,19.31,107.7289,19.06,19.95,72.3,0,110.7,13.3,19.88,119.1
"2010-06-21 00:43:00",219426,4.403,157.2,0.925,0.062,19.27,107.7331,19.08,19.96,72.2,0,110.7,13.3,19.89,119.2
"2010-06-21 00:43:30",219427,4.419,156.6,1.113,0.082,19.3,107.7362,19.08,19.97,72.18,0,110.7,13.3,19.90,118.6
"2010-06-21 00:44:00",219428,4.478,154.4,1.617,0.096,19.31,107.736,19.08,19.97,72.1,0,110.7,13.3,19.90,116.4
"2010-06-21 00:44:30",219429,4.339,153.3,1.218,0.099,19.61,107.7363,19.08,19.95,72.07,0,110.7,13.3,19.90,115.3
"2010-06-21 00:45:00",219430,4.166,149.5,1.71,0.117,19.5,107.7377,19.09,19.96,71.92,0,110.7,13.3,19.91,111.5
"2010-06-21 00:45:30",219431,3.963,148.2,1.428,0.096,19.28,107.7395,19.09,19.96,71.76,0,110.7,13.3,19.91,110.2
"2010-06-21 00:46:00",219432,3.572,145.3,1.435,0.094,19.24,107.7374,19.09,19.96,71.78,0,110.7,13.3,19.90,107.3
"2010-06-21 00:46:30",219433,3.318,141.9,1.64,0.094,19.52,107.7398,19.09,19.97,71.77,0,110.7,13.3,19.91,103.9
"2010-06-21 00:47:00",219434,3.106,137.3,1.21,0.09,19.25,107.7371,19.09,19.98,71.69,0,110.7,13.3,19.90,99.3
"2010-06-21 00:47:30",219435,2.927,137.5,1.416,0.075,19.34,107.7392,19.09,20,71.61,0,110.7,13.3,19.91,99.5
"2010-06-21 00:48:00",219436,2.593,134.8,1.299,0.126,19.22,107.7442,19.1,20,71.52,0,110.7,13.3,19.92,96.8
"2010-06-21 00:48:30",219437,2.147,134.2,0.863,0.116,19.36,107.7516,19.12,20.02,71.51,0,110.7,13.3,19.94,96.2
"2010-06-21 00:49:00",219438,1.776,134.4,1.33,0.079,19.15,107.7622,19.15,20.01,71.44,0,110.7,13.3,19.97,96.4
"2010-06-21 00:49:30",219439,1.427,131.8,1.42,0.114,19.14,107.7701,19.17,20.04,71.42,0,110.7,13.3,19.99,93.8
"2010-06-21 00:50:00",219440,1.042,125.2,2.766,0.093,19.1,107.7706,19.17,20.03,71.38,0,110.7,13.3,19.99,87.2
"2010-06-21 00:50:30",219441,0.757,114.3,4.426,0.083,18.91,107.7706,19.17,20.04,71.38,0,110.7,13.3,19.99,76.3
"2010-06-21 00:51:00",219442,0.54,98.1,4.236,0.073,18.88,107.7703,19.17,20.05,71.36,0,110.7,13.3,19.99,60.1
"2010-06-21 00:51:30",219443,0.21,79.29,7.761,0.064,18.93,107.7703,19.17,20.06,71.35,0,110.7,13.3,19.99,41.3
"2010-06-21 00:52:00",219444,0.013,70.53,7.112,0.07,18.81,107.7703,19.17,20.06,71.26,0,110.7,13.3,19.99,32.5
"2010-06-21 00:52:30",219445,-0.016,60.2,10.99,0.026,18.83,107.7703,19.17,20.07,71.17,0,110.7,13.3,19.99,22.2
"2010-06-21 00:53:00",219446,0.033,38.11,3.226,0.038,18.71,107.7703,19.17,20.07,71.16,0,110.7,13.3,19.99,0.1
"2010-06-21 00:53:30",219447,0.102,29.11,4.778,0.027,18.77,107.779,19.19,20.07,71.17,0,110.7,13.3,20.01,351.1
"2010-06-21 00:54:00",219448,0.226,32.98,3.29,0.076,18.63,107.8035,19.26,20.07,71.11,0,110.7,13.3,20.07,355.0
"2010-06-21 00:54:30",219449,0.508,37.58,2.104,0.04,18.32,107.8136,19.28,20.1,71.1,0,110.7,13.3,20.10,359.6
"2010-06-21 00:55:00",219450,0.511,48.23,3.645,0.068,18.18,107.826,19.31,20.12,71.01,0,110.7,13.3,20.13,10.2
"2010-06-21 00:55:30",219451,0.755,60.73,6.113,0.054,18.17,107.8088,19.27,20.12,71.06,0,110.7,13.3,20.09,22.7
"2010-06-21 00:56:00",219452,1.023,68.46,4.181,0.102,18.1,107.8041,19.26,20.13,71.11,0,110.7,13.29,20.08,30.5
"2010-06-21 00:56:30",219453,1.293,78.72,3.033,0.051,18.06,107.8019,19.25,20.12,71.14,0,110.7,13.29,20.07,40.7
"2010-06-21 00:57:00",219454,1.537,85,3.669,0.086,18.1,107.7971,19.24,20.11,71.17,0,110.7,13.29,20.06,47.0
"2010-06-21 00:57:30",219455,1.927,89.2,1.293,0.092,18.14,107.792,19.23,20.13,71.08,0,110.7,13.29,20.05,51.2
"2010-06-21 00:58:00",219456,2.129,91.4,1.554,0.065,18.22,107.7957,19.24,20.12,70.91,0,110.7,13.29,20.05,53.4
"2010-06-21 00:58:30",219457,2.16,95,1.081,0.04,18.02,107.8004,19.25,20.14,70.89,0,110.7,13.28,20.07,57.0
"2010-06-21 00:59:00",219458,2.288,95.3,0.602,0.084,18.1,107.8017,19.25,20.14,70.93,0,110.7,13.28,20.07,57.3
"2010-06-21 00:59:30",219459,2.354,96.9,1.414,0.052,18.22,107.8051,19.26,20.16,70.89,0,110.7,13.28,20.08,58.9
"2010-06-21 01:00:00",219460,2.228,101.9,1.42,0.057,18.28,107.8281,19.32,20.17,70.81,0,110.7,13.28,20.14,63.9
"2010-06-21 01:00:30",219461,2.201,103.2,1.277,0.036,18.38,107.8352,19.34,20.17,70.77,0,110.7,13.28,20.16,65.2
"2010-06-21 01:01:00",219462,2.151,105.2,1.679,0.041,18.39,107.836,19.34,20.21,70.71,0,110.8,13.27,20.16,67.2
"2010-06-21 01:01:30",219463,2.279,106.9,1.81,0.078,18.42,107.8552,19.39,20.23,70.61,0,110.8,13.27,20.21,68.9
"2010-06-21 01:02:00",219464,2.406,107.9,0.759,0.088,18.39,107.8669,19.42,20.23,70.52,0,110.8,13.27,20.24,69.9
"2010-06-21 01:02:30",219465,2.452,112.3,2.343,0.048,18.46,107.8674,19.42,20.23,70.43,0,110.8,13.27,20.24,74.3
"2010-06-21 01:03:00",219466,2.588,117.9,1.53,0.047,18.41,107.8602,19.4,20.24,70.32,0,110.8,13.27,20.22,79.9
"2010-06-21 01:03:30",219467,2.769,122.8,1.799,0.084,18.57,107.8532,19.38,20.24,70.28,0,110.8,13.27,20.20,84.8
"2010-06-21 01:04:00",219468,3.01,128,1.433,0.05,18.59,107.8523,19.38,20.25,70.36,0,110.8,13.27,20.20,90.0
"2010-06-21 01:04:30",219469,3.152,132.8,2.437,0.059,18.76,107.8444,19.36,20.24,70.47,0,110.8,13.27,20.18,94.8
"2010-06-21 01:05:00",219470,3.116,141,1.906,0.054,18.83,107.8175,19.29,20.24,70.44,0,110.8,13.27,20.11,103.0
"2010-06-21 01:05:30",219471,3.258,149.3,3.798,0.054,18.82,107.8133,19.28,20.21,70.51,0,110.8,13.27,20.10,111.3
"2010-06-21 01:06:00",219472,3.247,157.5,2.077,0.033,18.75,107.813,19.28,20.19,70.52,0,110.8,13.27,20.10,119.5
"2010-06-21 01:06:30",219473,3.265,163.5,2.082,0.054,18.89,107.8035,19.26,20.18,70.51,0,110.8,13.27,20.07,125.5
"2010-06-21 01:07:00",219474,3.383,170.1,1.521,0.088,19.04,107.8012,19.25,20.15,70.52,0,110.8,13.27,20.07,132.1
"2010-06-21 01:07:30",219475,3.499,173.6,1.416,0.068,19.16,107.7913,19.22,20.15,70.53,0,110.8,13.27,20.04,135.6
"2010-06-21 01:08:00",219476,3.936,175.7,1.789,0.108,19.13,107.7876,19.21,20.14,70.55,0,110.8,13.27,20.03,137.7
"2010-06-21 01:08:30",219477,3.839,171.3,4.793,0.206,19.49,107.7839,19.21,20.14,71.72,0,110.8,13.27,20.02,133.3
"2010-06-21 01:09:00",219478,4.201,179.7,2.902,0.141,19.48,107.7767,19.19,20.13,71.42,0,110.8,13.27,20.01,141.7
"2010-06-21 01:09:30",219479,3.548,177.2,3.974,0.396,19.62,107.7777,19.19,20.13,72.44,0,110.8,13.27,20.01,139.2
"2010-06-21 01:10:00",219480,4.159,173.5,5.606,0.211,20.3,107.7756,19.18,20.11,72.33,0,110.8,13.27,20.00,135.5
"2010-06-21 01:10:30",219481,4.486,174.4,2.463,0.191,20.35,107.7775,19.19,20.11,71.69,0,110.8,13.27,20.01,136.4
"2010-06-21 01:11:00",219482,4.048,176.2,1.413,0.13,19.67,107.7784,19.19,20.11,71.05,0,110.8,13.27,20.01,138.2
"2010-06-21 01:11:30",219483,4.246,176.9,1.528,0.099,19.66,107.7768,19.19,20.09,70.68,0,110.8,13.27,20.01,138.9
"2010-06-21 01:12:00",219484,4.213,178.5,0.938,0.113,19.71,107.7796,19.19,20.09,70.61,0,110.8,13.27,20.01,140.5
"2010-06-21 01:12:30",219485,4.346,178.9,0.962,0.12,19.62,107.7799,19.19,20.1,70.57,0,110.8,13.27,20.01,140.9
"2010-06-21 01:13:00",219486,4.538,179.9,0.727,0.058,19.46,107.779,19.19,20.09,70.58,0,110.8,13.27,20.01,141.9
"2010-06-21 01:13:30",219487,4.665,181.3,0.943,0.086,19.52,107.7796,19.19,20.11,70.59,0,110.8,13.27,20.01,143.3
"2010-06-21 01:14:00",219488,4.698,183.3,0.739,0.084,19.5,107.7844,19.21,20.1,70.54,0,110.8,13.27,20.03,145.3
"2010-06-21 01:14:30",219489,4.978,183.7,0.623,0.091,19.47,107.7847,19.21,20.1,70.6,0,110.8,13.27,20.03,145.7
"2010-06-21 01:15:00",219490,4.928,183.8,1.124,0.071,19.3,107.7844,19.21,20.1,70.69,0,110.8,13.27,20.03,145.8
"2010-06-21 01:15:30",219491,5.008,186.3,0.735,0.127,19.27,107.7865,19.21,20.09,70.66,0,110.8,13.27,20.03,148.3
"2010-06-21 01:16:00",219492,4.76,185.7,1.935,0.141,19.25,107.7911,19.22,20.12,71.02,0,110.8,13.27,20.04,147.7
"2010-06-21 01:16:30",219493,4.783,189.1,1.603,0.117,19.32,107.7911,19.22,20.09,71.21,0,110.8,13.27,20.04,151.1
"2010-06-21 01:17:00",219494,4.657,191.2,1.782,0.092,19.29,107.7914,19.22,20.09,71.49,0,110.8,13.27,20.04,153.2
"2010-06-21 01:17:30",219495,4.433,194.4,3.255,0.132,19.17,107.7913,19.22,20.08,71.65,0,110.8,13.27,20.04,156.4
"2010-06-21 01:18:00",219496,4.249,200,1.144,0.061,19.34,107.7905,19.22,20.07,71.28,0,110.8,13.27,20.04,162.0
"2010-06-21 01:18:30",219497,4.142,199.6,1.325,0.144,19.21,107.7833,19.2,20.08,72.36,0,110.8,13.27,20.02,161.6
"2010-06-21 01:19:00",219498,3.879,201.9,2.395,0.115,19,107.7694,19.17,20.07,72.55,0,110.8,13.27,19.99,163.9
"2010-06-21 01:19:30",219499,3.856,204.7,2.777,0.125,19.17,107.7619,19.15,20.06,72.41,0,110.8,13.27,19.97,166.7
"2010-06-21 01:20:00",219500,3.658,212.2,2.94,0.127,19.21,107.7634,19.15,20.05,72.33,0,110.8,13.27,19.97,174.2
"2010-06-21 01:20:30",219501,3.497,219.2,1.833,0.182,19.19,107.7667,19.16,20.05,72.36,0,110.8,13.27,19.98,181.2
"2010-06-21 01:21:00",219502,3.489,215.2,2.178,0.122,19.05,107.7682,19.16,20.05,72.34,0,110.8,13.27,19.98,177.2
"2010-06-21 01:21:30",219503,3.346,215.2,2.251,0.136,19.02,107.7681,19.16,20.05,72.55,0,110.8,13.27,19.98,177.2
"2010-06-21 01:22:00",219504,3.361,215.5,1.644,0.138,18.95,107.7712,19.17,20.04,72.32,0,110.8,13.28,19.99,177.5
"2010-06-21 01:22:30",219505,3.349,214.3,1.212,0.085,18.92,107.7747,19.18,20.04,72.11,0,110.8,13.28,20.00,176.3
"2010-06-21 01:23:00",219506,3.48,216.6,2.35,0.104,18.89,107.7815,19.2,20.06,72.81,0,110.8,13.28,20.02,178.6
"2010-06-21 01:23:30",219507,3.404,214.7,3.075,0.086,18.98,107.7882,19.22,20.06,72.69,0,110.8,13.28,20.04,176.7
"2010-06-21 01:24:00",219508,3.424,216.5,1.608,0.074,18.87,107.7945,19.23,20.07,72.23,0,110.8,13.28,20.05,178.5
"2010-06-21 01:24:30",219509,3.396,214.2,0.602,0.084,18.82,107.7972,19.24,20.07,70.75,0,110.8,13.28,20.06,176.2
"2010-06-21 01:25:00",219510,3.088,214.7,0.695,0.074,18.94,107.8006,19.25,20.09,70.38,0,110.8,13.28,20.07,176.7
"2010-06-21 01:25:30",219511,2.883,214.7,0.691,0.088,18.79,107.8206,19.3,20.12,70.27,0,110.8,13.28,20.12,176.7
"2010-06-21 01:26:00",219512,2.429,213.6,0.493,0.187,18.84,107.8312,19.33,20.14,70.27,0,110.8,13.28,20.15,175.6
"2010-06-21 01:26:30",219513,1.66,213.1,1.019,0.225,18.95,107.8354,19.34,20.16,70.57,0,110.8,13.28,20.16,175.1
"2010-06-21 01:27:00",219514,1.371,214.1,2.22,0.107,19.14,107.8556,19.39,20.18,70.37,0,110.8,13.28,20.21,176.1
"2010-06-21 01:27:30",219515,0.77,223,4.062,0.19,19.13,107.8796,19.45,20.23,70.01,0,110.8,13.27,20.27,185.0
"2010-06-21 01:28:00",219516,0.139,233.2,20.92,0.188,19.11,107.9175,19.55,20.3,70.08,0,110.8,13.27,20.37,195.2
"2010-06-21 01:28:30",219517,1.226,274.4,26.27,0.712,20.49,107.9801,19.71,20.37,66.07,0,110.8,13.27,20.53,236.4
"2010-06-21 01:29:00",219518,1.295,311.4,4.167,0.31,21.63,108.1762,20.21,20.62,57.8,0,110.8,13.27,21.03,273.4
"2010-06-21 01:29:30",219519,0.859,311,3.119,0.12,21.89,108.4216,20.84,20.98,53.43,0,110.8,13.27,21.67,273.0
"2010-06-21 01:30:00",219520,0.377,318.4,9.63,0.215,22.17,108.6392,21.4,21.35,48.26,0,110.8,13.27,22.23,280.4
"2010-06-21 01:30:30",219521,0.434,54.41,27.5,0.21,22.36,108.8559,21.96,21.72,42.57,0,110.8,13.27,22.78,16.4
"2010-06-21 01:31:00",219522,0.926,113.3,8.85,0.141,21.79,109.0521,22.46,22.09,43.91,0,110.8,13.27,23.29,75.3
"2010-06-21 01:31:30",219523,1.444,126.8,2.485,0.185,21.28,109.1642,22.75,22.45,45.95,0,110.8,13.27,23.58,88.8
"2010-06-21 01:32:00",219524,2.642,134.6,5.791,0.809,19.94,109.21,22.87,22.74,50.69,0,110.8,13.27,23.70,96.6
"2010-06-21 01:32:30",219525,4.911,139.5,2.376,0.373,18.04,109.0735,22.51,22.87,57.99,0,110.8,13.26,23.35,101.5
"2010-06-21 01:33:00",219526,6.184,153.2,3.564,0.317,17.97,108.8355,21.9,22.72,59.86,0,110.8,13.26,22.73,115.2
"2010-06-21 01:33:30",219527,7.296,156.7,1.476,0.335,18.09,108.6116,21.33,22.44,61.81,0,110.8,13.26,22.16,118.7
"2010-06-21 01:34:00",219528,7.809,162.9,1.106,0.1,18.35,108.4473,20.91,22.14,62.78,0,110.8,13.26,21.73,124.9
"2010-06-21 01:34:30",219529,8.33,169.3,1.549,0.223,18.8,108.3356,20.62,21.87,63.94,0,110.8,13.26,21.44,131.3
"2010-06-21 01:35:00",219530,8.32,172.2,1.07,0.102,18.97,108.2464,20.39,21.69,65.01,0,110.8,13.26,21.21,134.2
"2010-06-21 01:35:30",219531,8.72,174.9,1.13,0.172,19.03,108.1862,20.24,21.52,65.37,0,110.8,13.26,21.06,136.9
"2010-06-21 01:36:00",219532,9.06,175.9,0.439,0.067,19.1,108.1457,20.13,21.43,65.77,0,110.8,13.26,20.96,137.9
"2010-06-21 01:36:30",219533,8.89,179.3,1.28,0.13,19.15,108.0962,20.01,21.32,65.63,0,110.8,13.26,20.83,141.3
"2010-06-21 01:37:00",219534,8.41,180.3,0.389,0.174,19.29,108.0585,19.91,21.2,65.68,0,110.8,13.26,20.73,142.3
"2010-06-21 01:37:30",219535,8.18,181.3,0.616,0.079,19.44,108.0351,19.85,21.11,66.4,0,110.8,13.26,20.67,143.3
"2010-06-21 01:38:00",219536,7.863,183.7,1.186,0.169,19.58,108.0306,19.84,21.05,66.33,0,110.8,13.26,20.66,145.7
"2010-06-21 01:38:30",219537,7.314,186,0.335,0.151,19.74,108.0281,19.83,20.98,66.54,0,110.8,13.26,20.65,148.0
"2010-06-21 01:39:00",219538,7.18,184.7,0.656,0.077,19.76,108.0345,19.85,20.96,66.66,0,110.8,13.27,20.67,146.7
"2010-06-21 01:39:30",219539,7.081,186.6,1.897,0.082,19.99,108.041,19.86,20.94,66.59,0,110.8,13.27,20.69,148.6
"2010-06-21 01:40:00",219540,7.104,187.6,0.534,0.065,20.11,108.0751,19.95,20.94,66.1,0,110.8,13.27,20.77,149.6
"2010-06-21 01:40:30",219541,6.821,186.1,0.611,0.116,20.05,108.1097,20.04,20.99,65.87,0,110.8,13.27,20.86,148.1
"2010-06-21 01:41:00",219542,6.924,184.7,0.435,0.075,19.99,108.1429,20.13,21.03,65.59,0,110.8,13.27,20.95,146.7
"2010-06-21 01:41:30",219543,6.987,182.8,0.717,0.057,19.84,108.1679,20.19,21.08,65.71,0,110.8,13.27,21.01,144.8
"2010-06-21 01:42:00",219544,6.831,183.2,0.788,0.037,19.87,108.1704,20.2,21.09,65.63,0,110.8,13.27,21.02,145.2
"2010-06-21 01:42:30",219545,6.754,188.1,1.453,0.071,20.02,108.1884,20.24,21.1,65.16,0,110.8,13.27,21.07,150.1
"2010-06-21 01:43:00",219546,6.547,189.9,1.134,0.047,19.96,108.2064,20.29,21.14,64.86,0,110.8,13.27,21.11,151.9
"2010-06-21 01:43:30",219547,6.298,193.9,1.074,0.173,19.77,108.2264,20.34,21.16,64.87,0,110.8,13.27,21.16,155.9
"2010-06-21 01:44:00",219548,5.854,192,0.707,0.122,19.39,108.2132,20.31,21.18,65.38,0,110.8,13.27,21.13,154.0
"2010-06-21 01:44:30",219549,5.462,192.1,0.744,0.097,19.13,108.1783,20.22,21.15,65.74,0,110.8,13.27,21.04,154.1
"2010-06-21 01:45:00",219550,5.397,199.2,3.012,0.04,19.06,108.122,20.07,21.07,65.84,0,110.8,13.27,20.89,161.2
"2010-06-21 01:45:30",219551,5.332,205.9,1.184,0.111,18.95,108.0722,19.94,20.97,66.08,0,110.8,13.27,20.77,167.9
"2010-06-21 01:46:00",219552,4.806,204.3,1.537,0.174,19,108.0171,19.8,20.89,67.27,0,110.8,13.27,20.62,166.3
"2010-06-21 01:46:30",219553,4.658,203.5,2.335,0.088,19.23,107.9566,19.65,20.78,68.12,0,110.8,13.27,20.47,165.5
"2010-06-21 01:47:00",219554,4.583,202.6,1.669,0.13,19.3,107.9079,19.52,20.66,68.88,0,110.8,13.27,20.34,164.6
"2010-06-21 01:47:30",219555,4.294,204.8,2.461,0.107,17.01,107.8643,19.41,20.55,69.36,0,110.8,13.27,20.23,166.8
"2010-06-21 01:48:00",219556,4.168,208.6,1.494,0.077,19.84,107.8286,19.32,20.48,69.69,0,110.8,13.27,20.14,170.6
"2010-06-21 01:48:30",219557,4.095,213,1.864,0.067,17.35,107.7991,19.24,20.38,69.88,0,110.8,13.27,20.06,175.0